CZ-2C DEB (43535 NORAD) Tracking and Keplerian Element Data

This shows tracking and keplerian element data for the satellite.

Feedback or suggestion? Click here.




ElementValue
Catalog43535
NameCZ-2C DEB
Epoch Orbit456
Epoch Day219.97392843
Epoch Year2018
RAAN292.0507
Inclination97.852
Eccentricity0.0285644
Argument of Perigee56.7871
Mean Anonmoly306.0685
Mean Motion15.48345387
Decay Rate0.00752326
L11 43535U 18056G 18219.97392843 .00752326 14911-3 24417-2 0 9990
L22 43535 97.8520 292.0507 0285644 56.7871 306.0685 15.48345387 4562

Live tracking and technical data element details for CZ-2C DEB (NORAD 43535). CZ-2C DEB can be tracked NOW for your location showing map with azimuth and elevation plus other details from your city location.

Track the satellite on the map from your city or location and see movement details for azimuth, elevation, latitude, longitude, range, height, and movement on the map or in text.







IsCatalogInMostPopularTable: catalog: 43535, numindb: 43
Update: records affected: 1



GetName: 43535 CZ-2C DEB

Hit Count: updated at: Sat, 17 Nov 2018 05:28:51 GMT